EN

Hourly Weather Amacuzac

Today, 21 January, Thursday

Time Temperature Precipitation Wind Pressure Humidity
00:00 +21°C° 0 mm 1 mps 666 mmHg 60%
01:00 +20°C° 0 mm 1 mps 666 mmHg 62%
02:00 +20°C° 0 mm 1 mps 666 mmHg 64%
03:00 +20°C° 0 mm 1 mps 666 mmHg 66%
04:00 +17°C° 0 mm 0 mps 666 mmHg 68%
05:00 +17°C° 0 mm 0 mps 666 mmHg 70%
06:00 +18°C° 0 mm 0 mps 666 mmHg 65%
07:00 +19°C° 0 mm 0 mps 667 mmHg 60%
08:00 +21°C° 0 mm 0 mps 667 mmHg 56%
09:00 +25°C° 0 mm 1 mps 667 mmHg 50%
10:00 +28°C° 0 mm 1 mps 668 mmHg 43%
11:00 +30°C° 0 mm 1 mps 668 mmHg 37%
12:00 +31°C° 0 mm 1 mps 667 mmHg 34%
13:00 +32°C° 0 mm 1 mps 666 mmHg 31%
14:00 +32°C° 0 mm 1 mps 665 mmHg 28%
15:00 +31°C° 0 mm 1 mps 665 mmHg 31%
16:00 +29°C° 0 mm 1 mps 664 mmHg 34%
17:00 +25°C° 0 mm 0 mps 664 mmHg 37%
18:00 +26°C° 0 mm 1 mps 664 mmHg 40%
19:00 +24°C° 0 mm 1 mps 664 mmHg 43%
20:00 +23°C° 0 mm 1 mps 665 mmHg 46%
21:00 +22°C° 0 mm 1 mps 665 mmHg 48%
22:00 +22°C° 0 mm 1 mps 664 mmHg 50%
23:00 +21°C° 0 mm 1 mps 664 mmHg 52%

Tomorrow, 22 January, Friday

Time Temperature Precipitation Wind Pressure Humidity
00:00 +21°C° 0 mm 1 mps 664 mmHg 53%
01:00 +21°C° 0 mm 1 mps 664 mmHg 54%
02:00 +18°C° 0 mm 0 mps 664 mmHg 55%
03:00 +18°C° 0 mm 0 mps 664 mmHg 56%
04:00 +18°C° 0 mm 0 mps 664 mmHg 57%
05:00 +17°C° 0 mm 0 mps 664 mmHg 58%
06:00 +19°C° 0 mm 0 mps 665 mmHg 54%
07:00 +20°C° 0 mm 0 mps 665 mmHg 50%
08:00 +22°C° 0 mm 0 mps 666 mmHg 46%
09:00 +25°C° 0 mm 0 mps 666 mmHg 40%
10:00 +29°C° 0 mm 1 mps 667 mmHg 35%
11:00 +32°C° 0 mm 1 mps 667 mmHg 30%
12:00 +33°C° 0 mm 1 mps 666 mmHg 28%
13:00 +33°C° 0 mm 1 mps 665 mmHg 26%
14:00 +34°C° 0 mm 1 mps 665 mmHg 24%
15:00 +32°C° 0 mm 1 mps 664 mmHg 27%
16:00 +30°C° 0 mm 1 mps 664 mmHg 30%
17:00 +29°C° 0 mm 1 mps 663 mmHg 33%
18:00 +27°C° 0 mm 1 mps 664 mmHg 37%
19:00 +26°C° 0 mm 1 mps 664 mmHg 41%
20:00 +24°C° 0 mm 1 mps 664 mmHg 45%
21:00 +24°C° 0 mm 1 mps 664 mmHg 47%
22:00 +23°C° 0 mm 1 mps 664 mmHg 49%
23:00 +22°C° 0 mm 1 mps 664 mmHg 51%

Day after tomorrow, 23 January, Saturday

Time Temperature Precipitation Wind Pressure Humidity
00:00 +22°C° 0 mm 1 mps 664 mmHg 52%
01:00 +21°C° 0 mm 1 mps 664 mmHg 54%
02:00 +19°C° 0 mm 0 mps 663 mmHg 55%
03:00 +19°C° 0 mm 0 mps 663 mmHg 57%
04:00 +18°C° 0 mm 0 mps 663 mmHg 58%
05:00 +18°C° 0 mm 0 mps 663 mmHg 59%
06:00 +19°C° 0 mm 0 mps 664 mmHg 55%
07:00 +21°C° 0 mm 0 mps 665 mmHg 51%
08:00 +22°C° 0 mm 0 mps 665 mmHg 47%
09:00 +25°C° 0 mm 0 mps 666 mmHg 42%
10:00 +29°C° 0 mm 1 mps 666 mmHg 37%
11:00 +32°C° 0 mm 1 mps 666 mmHg 32%
12:00 +32°C° 0 mm 1 mps 666 mmHg 30%
13:00 +33°C° 0 mm 1 mps 665 mmHg 28%
14:00 +33°C° 0 mm 1 mps 664 mmHg 26%
15:00 +32°C° 0 mm 1 mps 664 mmHg 29%
16:00 +30°C° 0 mm 1 mps 664 mmHg 32%
17:00 +28°C° 0 mm 1 mps 663 mmHg 35%
18:00 +27°C° 0 mm 1 mps 663 mmHg 39%
19:00 +26°C° 0 mm 1 mps 664 mmHg 42%
20:00 +24°C° 0 mm 1 mps 664 mmHg 45%
21:00 +24°C° 0 mm 1 mps 664 mmHg 47%
22:00 +23°C° 0 mm 1 mps 664 mmHg 49%
23:00 +23°C° 0 mm 1 mps 664 mmHg 51%

24 January, Sunday

Time Temperature Precipitation Wind Pressure Humidity
00:00 +22°C° 0 mm 1 mps 663 mmHg 53%
01:00 +19°C° 0 mm 0 mps 663 mmHg 55%
02:00 +19°C° 0 mm 0 mps 663 mmHg 58%
03:00 +19°C° 0 mm 0 mps 663 mmHg 59%
04:00 +18°C° 0 mm 0 mps 663 mmHg 61%
05:00 +18°C° 0 mm 0 mps 663 mmHg 62%
06:00 +19°C° 0 mm 0 mps 664 mmHg 58%
07:00 +21°C° 0 mm 0 mps 664 mmHg 54%
08:00 +22°C° 0 mm 0 mps 665 mmHg 49%
09:00 +25°C° 0 mm 0 mps 665 mmHg 43%
10:00 +29°C° 0 mm 1 mps 666 mmHg 37%
11:00 +32°C° 0 mm 1 mps 666 mmHg 31%
12:00 +32°C° 0 mm 1 mps 665 mmHg 29%
13:00 +33°C° 0 mm 1 mps 665 mmHg 27%
14:00 +34°C° 0 mm 2 mps 664 mmHg 24%
15:00 +32°C° 0 mm 1 mps 664 mmHg 27%
16:00 +30°C° 0 mm 1 mps 663 mmHg 30%
17:00 +28°C° 0 mm 1 mps 663 mmHg 33%
18:00 +27°C° 0 mm 1 mps 663 mmHg 38%
19:00 +25°C° 0 mm 1 mps 663 mmHg 43%
20:00 +23°C° 0 mm 1 mps 664 mmHg 49%
21:00 +23°C° 0 mm 1 mps 664 mmHg 51%
22:00 +22°C° 0 mm 1 mps 663 mmHg 53%
23:00 +21°C° 0 mm 1 mps 663 mmHg 56%

25 January, Monday

Time Temperature Precipitation Wind Pressure Humidity
00:00 +21°C° 0 mm 1 mps 663 mmHg 57%
01:00 +20°C° 0 mm 1 mps 663 mmHg 59%
02:00 +18°C° 0 mm 0 mps 663 mmHg 60%
03:00 +17°C° 0 mm 0 mps 663 mmHg 62%
04:00 +17°C° 0 mm 0 mps 663 mmHg 63%
05:00 +16°C° 0 mm 0 mps 663 mmHg 64%
06:00 +18°C° 0 mm 0 mps 663 mmHg 59%
07:00 +20°C° 0 mm 0 mps 664 mmHg 54%
08:00 +21°C° 0 mm 0 mps 665 mmHg 48%
09:00 +24°C° 0 mm 0 mps 665 mmHg 43%
10:00 +28°C° 0 mm 1 mps 665 mmHg 38%
11:00 +31°C° 0 mm 1 mps 666 mmHg 32%
12:00 +31°C° 0 mm 1 mps 665 mmHg 30%
13:00 +32°C° 0 mm 1 mps 664 mmHg 28%
14:00 +33°C° 0 mm 1 mps 664 mmHg 26%
15:00 +31°C° 0 mm 1 mps 663 mmHg 29%
16:00 +29°C° 0 mm 1 mps 663 mmHg 32%
17:00 +28°C° 0 mm 1 mps 663 mmHg 35%
18:00 +26°C° 0 mm 1 mps 663 mmHg 39%
19:00 +25°C° 0 mm 1 mps 663 mmHg 42%
20:00 +23°C° 0 mm 1 mps 663 mmHg 46%
21:00 +22°C° 0 mm 1 mps 663 mmHg 48%
22:00 +22°C° 0 mm 1 mps 663 mmHg 50%
23:00 +21°C° 0 mm 1 mps 663 mmHg 52%

26 January, Tuesday

Time Temperature Precipitation Wind Pressure Humidity
00:00 +21°C° 0 mm 1 mps 663 mmHg 53%
01:00 +20°C° 0 mm 1 mps 663 mmHg 55%
02:00 +20°C° 0 mm 1 mps 663 mmHg 56%
03:00 +18°C° 0 mm 0 mps 663 mmHg 58%
04:00 +17°C° 0 mm 0 mps 663 mmHg 60%
05:00 +17°C° 0 mm 0 mps 663 mmHg 62%
06:00 +18°C° 0 mm 0 mps 664 mmHg 57%
07:00 +20°C° 0 mm 0 mps 664 mmHg 53%
08:00 +21°C° 0 mm 0 mps 665 mmHg 48%
09:00 +24°C° 0 mm 0 mps 665 mmHg 43%
10:00 +28°C° 0 mm 1 mps 666 mmHg 37%
11:00 +31°C° 0 mm 1 mps 666 mmHg 32%
12:00 +32°C° 0 mm 1 mps 665 mmHg 30%
13:00 +32°C° 0 mm 1 mps 664 mmHg 28%
14:00 +33°C° 0 mm 1 mps 664 mmHg 26%
15:00 +31°C° 0 mm 1 mps 663 mmHg 29%
16:00 +30°C° 0 mm 1 mps 663 mmHg 31%
17:00 +28°C° 0 mm 1 mps 663 mmHg 34%
18:00 +27°C° 0 mm 1 mps 663 mmHg 38%
19:00 +25°C° 0 mm 1 mps 664 mmHg 41%
20:00 +23°C° 0 mm 1 mps 664 mmHg 45%
21:00 +23°C° 0 mm 1 mps 664 mmHg 47%
22:00 +22°C° 0 mm 1 mps 664 mmHg 49%
23:00 +21°C° 0 mm 1 mps 664 mmHg 51%
Show more